Weather History for Melbourne, FL

Change the Weather History Date:

Tuesday, July 23, 2013

  Actual Average Record
Temperature  
Mean Temperature 82 °F 82 °F  
Max Temperature 91 °F 91 °F 97 °F (1983)
Min Temperature 73 °F 73 °F 67 °F (1974)
Degree Days  
Heating Degree Days 0 0  
Month to date heating degree days 0 0  
Since 1 June heating degree days 0 0  
Since 1 July heating degree days 0 0  
Cooling Degree Days 17 17  
Month to date cooling degree days 398 380  
Year to date cooling degree days 1757 1568  
Since 1 June cooling degree days 896 842  
Growing Degree Days 31 (Base 50)    
Moisture  
Dew Point 73 °F    
Average Humidity 78    
Maximum Humidity 94    
Minimum Humidity 61    
Precipitation  
Precipitation 0.04 in 0.20 in 2.01 in (1964)
Month to date precipitation 5.11 4.31  
Year to date precipitation 27.18 24.52  
Sea Level Pressure  
Sea Level Pressure 30.04 in    
Wind  
Wind Speed 6 mph (WSW)    
Max Wind Speed 20 mph    
Max Gust Speed 26 mph    
Visibility 10 miles    
Events      
T = Trace of Precipitation, MM = Missing Value Source: NWS Daily Summary

Daily Weather History Graph

Daily Weather History Graph

Search for Another Location

Airport:

Trip Planner

Search our weather history database for the weather conditions in past years. The results will help you decide how hot, cold, wet, or windy it might be!

Date:

Astronomy

Jul. 23, 2013 Rise Set
Actual Time 6:40 AM EDT 8:17 PM EDT
Civil Twilight 6:14 AM EDT 8:43 PM EDT
Nautical Twilight 5:43 AM EDT 9:14 PM EDT
Astronomical Twilight 5:10 AM EDT 9:46 PM EDT
Moon 8:58 PM EDT 7:36 AM EDT
Length of Visible Light 14h 29m
Length of Day
13h 37m
Full, 99% of the Moon is Illuminated
Jul 23
Full
Jul 29
Last Quarter
Aug 6
New
Aug 14
First Quarter
Aug 20
Full

Hourly Weather History & Observations

Time (EDT) Temp. Heat Index Dew Point Humidity Pressure Visibility Wind Dir Wind Speed Gust Speed Precip Events Conditions
12:53 AM 75.0 °F - 73.0 °F 94% 30.10 in 10.0 mi Calm Calm - N/A   Clear
1:53 AM 75.0 °F - 73.0 °F 94% 30.09 in 10.0 mi SSW 3.5 mph - N/A   Clear
2:53 AM 75.0 °F - 73.0 °F 94% 30.07 in 10.0 mi SW 4.6 mph - 0.01 in   Clear
3:53 AM 75.0 °F - 72.0 °F 90% 30.06 in 10.0 mi SSW 4.6 mph - N/A   Clear
4:53 AM 73.9 °F - 72.0 °F 93% 30.06 in 10.0 mi SSW 4.6 mph - N/A   Clear
5:53 AM 75.0 °F - 72.0 °F 90% 30.06 in 10.0 mi WSW 4.6 mph - N/A   Clear
6:53 AM 73.9 °F - 72.0 °F 93% 30.07 in 10.0 mi West 3.5 mph - N/A   Clear
7:53 AM 75.9 °F - 73.9 °F 94% 30.08 in 10.0 mi SSW 3.5 mph - N/A   Clear
8:53 AM 80.1 °F 85.4 °F 75.9 °F 87% 30.09 in 10.0 mi Variable 3.5 mph - N/A   Clear
9:53 AM 82.9 °F 90.8 °F 75.9 °F 79% 30.10 in 10.0 mi WSW 9.2 mph - N/A   Mostly Cloudy
10:42 AM 84.2 °F 92.3 °F 75.2 °F 74% 30.09 in 10.0 mi WSW 4.6 mph - N/A   Mostly Cloudy
10:53 AM 84.9 °F 94.1 °F 75.9 °F 74% 30.08 in 10.0 mi SW 6.9 mph - N/A   Mostly Cloudy
11:53 AM 84.9 °F 95.3 °F 77.0 °F 77% 30.08 in 10.0 mi WSW 5.8 mph - 0.04 in   Mostly Cloudy
12:53 PM 88.0 °F 95.6 °F 73.0 °F 61% 30.05 in 10.0 mi West 10.4 mph - N/A   Mostly Cloudy
1:53 PM - - - N/A% 30.04 in - West 11.5 mph - N/A   Scattered Clouds
2:37 PM 89.6 °F 98.2 °F 73.4 °F 59% 30.03 in 10.0 mi WNW 16.1 mph - N/A   Partly Cloudy
2:53 PM 86.0 °F 92.2 °F 72.0 °F 63% 30.02 in 10.0 mi NW 12.7 mph - N/A   Scattered Clouds
3:53 PM 84.9 °F 91.4 °F 73.0 °F 67% 30.01 in 10.0 mi WNW 11.5 mph - N/A   Scattered Clouds
4:53 PM 84.0 °F 88.4 °F 70.0 °F 63% 30.00 in 10.0 mi West 12.7 mph - N/A   Partly Cloudy
5:53 PM 82.9 °F 87.0 °F 70.0 °F 65% 30.00 in 10.0 mi West 6.9 mph - 0.00 in   Mostly Cloudy
6:53 PM 82.9 °F 87.5 °F 71.1 °F 67% 29.99 in 10.0 mi West 10.4 mph - N/A   Mostly Cloudy
7:53 PM 80.1 °F 83.8 °F 72.0 °F 76% 29.96 in 10.0 mi West 5.8 mph - N/A   Clear
8:53 PM 79.0 °F - 71.1 °F 77% 29.97 in 10.0 mi Calm Calm - N/A   Clear
9:53 PM 78.1 °F - 71.1 °F 79% 30.00 in 10.0 mi West 3.5 mph - N/A   Clear
10:53 PM 78.1 °F - 72.0 °F 81% 30.03 in 10.0 mi WSW 4.6 mph - N/A   Mostly Cloudy
11:53 PM 78.1 °F - 73.0 °F 84% 30.02 in 10.0 mi SW 3.5 mph - N/A   Clear